Beatrice, NE

1:13 AM CDT on September 25, 2016 (GMT -0500)
Beatrice Municipal

Weather History for KBIE - December, 2008

Change the Weather History Date:

Saturday, December 6, 2008

  Actual Average Record
Temperature  
Mean Temperature 30 °F -  
Max Temperature 37 °F 38 °F 60 °F (1963)
Min Temperature 23 °F 21 °F -9 °F (1950)
Degree Days  
Heating Degree Days 34    
Moisture  
Dew Point 26 °F    
Average Humidity 70    
Maximum Humidity 87    
Minimum Humidity 52    
Precipitation  
Precipitation 0.00 in - - ()
Sea Level Pressure  
Sea Level Pressure 30.05 in    
Wind  
Wind Speed 11 mph (NW)    
Max Wind Speed 23 mph    
Max Gust Speed 26 mph    
Visibility 10 miles    
Events      
Averages and records for this station are not official NWS values.
T = Trace of Precipitation, MM = Missing Value Source: NWS Daily Summary

Daily Weather History Graph

Daily Weather History Graph

Search for Another Location

Airport or City:

Trip Planner

Search our weather history database for the weather conditions in past years. The results will help you decide how hot, cold, wet, or windy it might be!

Date:

Astronomy

Dec. 06, 2008 Rise Set
Actual Time 7:35 AM CST 5:00 PM CST
Civil Twilight 7:05 AM CST 5:31 PM CST
Nautical Twilight 6:31 AM CST 6:05 PM CST
Astronomical Twilight 5:58 AM CST 6:38 PM CST
Moon 12:56 PM CST (12/6) 12:34 AM CST (12/6)
Length of Visible Light 10h 25m
Length of Day
9h 24m
First Quarter, 59% of the Moon is Illuminated
Dec 6
First Quarter
Dec 12
Full
Dec 19
Last Quarter
Dec 27
New
Jan 4
First Quarter

Hourly Weather History & Observations

Time (CST) Temp. Windchill Dew Point Humidity Pressure Visibility Wind Dir Wind Speed Gust Speed Precip Events Conditions
12:10 AM 37.4 °F 30.8 °F 30.2 °F 75% 29.89 in 10.0 mi West 9.2 mph - N/A   Overcast
12:30 AM 37.4 °F 29.3 °F 30.2 °F 75% 29.90 in 10.0 mi West 12.7 mph - N/A   Scattered Clouds
12:50 AM 37.4 °F 30.3 °F 30.2 °F 75% 29.89 in 10.0 mi West 10.4 mph - N/A   Clear
1:10 AM 37.4 °F 30.3 °F 30.2 °F 75% 29.89 in 10.0 mi West 10.4 mph - N/A   Clear
1:30 AM 37.4 °F 30.8 °F 28.4 °F 70% 29.89 in 10.0 mi West 9.2 mph - N/A   Clear
1:50 AM 35.6 °F 28.6 °F 28.4 °F 75% 29.89 in 10.0 mi West 9.2 mph - N/A   Clear
2:10 AM 35.6 °F 29.2 °F 28.4 °F 75% 29.90 in 10.0 mi West 8.1 mph - N/A   Clear
2:30 AM 33.8 °F 27.0 °F 26.6 °F 75% 29.90 in 10.0 mi WNW 8.1 mph - N/A   Clear
2:50 AM 33.8 °F 27.0 °F 28.4 °F 81% 29.91 in 10.0 mi WNW 8.1 mph - N/A   Clear
3:10 AM 33.8 °F 28.6 °F 28.4 °F 81% 29.91 in 10.0 mi West 5.8 mph - N/A   Clear
3:30 AM 33.8 °F 29.6 °F 28.4 °F 81% 29.91 in 10.0 mi West 4.6 mph - N/A   Scattered Clouds
3:50 AM 32.0 °F 26.4 °F 28.4 °F 87% 29.91 in 10.0 mi West 5.8 mph - N/A   Scattered Clouds
4:10 AM 33.8 °F 25.8 °F 30.2 °F 87% 29.92 in 10.0 mi WNW 10.4 mph - N/A   Mostly Cloudy
4:30 AM 35.6 °F 28.6 °F 32.0 °F 87% 29.92 in 10.0 mi WNW 9.2 mph - N/A   Scattered Clouds
4:50 AM 35.6 °F 28.6 °F 32.0 °F 87% 29.93 in 10.0 mi WNW 9.2 mph - N/A   Clear
5:10 AM 35.6 °F 29.2 °F 32.0 °F 87% 29.93 in 10.0 mi WNW 8.1 mph - N/A   Clear
5:30 AM 35.6 °F 28.6 °F 32.0 °F 87% 29.94 in 10.0 mi WNW 9.2 mph - N/A   Clear
5:50 AM 37.4 °F 29.8 °F 32.0 °F 81% 29.95 in 10.0 mi WNW 11.5 mph - N/A   Clear
6:10 AM 35.6 °F 28.6 °F 30.2 °F 81% 29.96 in 10.0 mi NW 9.2 mph - N/A   Clear
6:30 AM 35.6 °F 29.2 °F 30.2 °F 81% 29.97 in 10.0 mi NW 8.1 mph - N/A   Clear
6:50 AM 37.4 °F 31.4 °F 32.0 °F 81% 29.98 in 10.0 mi NW 8.1 mph - N/A   Scattered Clouds
7:10 AM 35.6 °F 29.2 °F 32.0 °F 87% 29.99 in 10.0 mi NW 8.1 mph - N/A   Mostly Cloudy
7:30 AM 35.6 °F 28.6 °F 30.2 °F 81% 30.00 in 10.0 mi NW 9.2 mph - N/A   Scattered Clouds
7:50 AM 35.6 °F 28.6 °F 30.2 °F 81% 30.01 in 10.0 mi NW 9.2 mph - N/A   Clear
8:10 AM 35.6 °F 29.9 °F 30.2 °F 81% 30.02 in 10.0 mi NW 6.9 mph - N/A   Clear
8:30 AM 35.6 °F 30.7 °F 30.2 °F 81% 30.03 in 10.0 mi NW 5.8 mph - N/A   Mostly Cloudy
8:50 AM 35.6 °F 29.9 °F 30.2 °F 81% 30.04 in 10.0 mi NW 6.9 mph - N/A   Overcast
9:10 AM 37.4 °F 29.8 °F 30.2 °F 75% 30.05 in 10.0 mi NNW 11.5 mph - N/A   Overcast
9:30 AM 37.4 °F 27.8 °F 30.2 °F 75% 30.07 in 10.0 mi North 17.3 mph - N/A   Overcast
9:50 AM 35.6 °F 26.2 °F 26.6 °F 70% 30.09 in 10.0 mi North 15.0 mph 18.4 mph N/A   Overcast
10:10 AM 35.6 °F 25.5 °F 26.6 °F 70% 30.10 in 10.0 mi North 17.3 mph - N/A   Overcast
10:30 AM 35.6 °F 24.2 °F 26.6 °F 70% 30.12 in 10.0 mi North 21.9 mph - N/A   Overcast
10:50 AM 37.4 °F 28.2 °F 26.6 °F 65% 30.13 in 10.0 mi North 16.1 mph 21.9 mph N/A   Overcast
11:10 AM 37.4 °F 27.8 °F 24.8 °F 60% 30.14 in 10.0 mi North 17.3 mph - N/A   Overcast
11:30 AM 35.6 °F 25.5 °F 23.0 °F 60% 30.14 in 10.0 mi North 17.3 mph - N/A   Mostly Cloudy
11:50 AM 37.4 °F 26.4 °F 23.0 °F 56% 30.15 in 10.0 mi NNW 23.0 mph 26.5 mph N/A   Scattered Clouds
12:10 PM 37.4 °F 27.2 °F 23.0 °F 56% 30.15 in 10.0 mi NNW 19.6 mph 26.5 mph N/A   Scattered Clouds
12:30 PM 37.4 °F 27.2 °F 23.0 °F 56% 30.15 in 10.0 mi NNW 19.6 mph - N/A   Clear
12:50 PM 37.4 °F 27.2 °F 23.0 °F 56% 30.15 in 10.0 mi North 19.6 mph - N/A   Scattered Clouds
1:10 PM 35.6 °F 24.8 °F 23.0 °F 60% 30.14 in 10.0 mi NNW 19.6 mph - N/A   Scattered Clouds
1:30 PM 37.4 °F 26.9 °F 21.2 °F 52% 30.15 in 10.0 mi NNW 20.7 mph 26.5 mph N/A   Clear
1:50 PM 37.4 °F 27.8 °F 21.2 °F 52% 30.15 in 10.0 mi North 17.3 mph 24.2 mph N/A   Scattered Clouds
2:10 PM 37.4 °F 27.8 °F 21.2 °F 52% 30.16 in 10.0 mi NNW 17.3 mph 24.2 mph N/A   Clear
2:30 PM 35.6 °F 25.9 °F 19.4 °F 52% 30.17 in 10.0 mi NW 16.1 mph - N/A   Mostly Cloudy
2:50 PM 35.6 °F 25.2 °F 21.2 °F 56% 30.17 in 10.0 mi NNW 18.4 mph - N/A   Overcast
3:10 PM 35.6 °F 25.2 °F 19.4 °F 52% 30.18 in 10.0 mi NW 18.4 mph - N/A   Overcast
3:30 PM 35.6 °F 25.2 °F 19.4 °F 52% 30.18 in 10.0 mi NNW 18.4 mph - N/A   Overcast
3:50 PM 33.8 °F 24.8 °F 19.4 °F 56% 30.19 in 10.0 mi NNW 12.7 mph - N/A   Scattered Clouds
4:10 PM 33.8 °F 23.9 °F 17.6 °F 52% 30.19 in 10.0 mi NNW 15.0 mph 23.0 mph N/A   Clear
4:30 PM 32.0 °F 23.6 °F 17.6 °F 55% 30.20 in 10.0 mi North 10.4 mph - N/A   Clear
4:50 PM 32.0 °F 23.6 °F 17.6 °F 55% 30.21 in 10.0 mi North 10.4 mph - N/A   Clear
5:10 PM 30.2 °F 22.6 °F 15.8 °F 55% 30.21 in 10.0 mi NNW 8.1 mph - N/A   Clear
5:30 PM 28.4 °F 20.4 °F 15.8 °F 59% 30.22 in 10.0 mi North 8.1 mph - N/A   Clear
5:50 PM 24.8 °F 17.9 °F 14.0 °F 64% 30.22 in 10.0 mi North 5.8 mph - N/A   Clear
6:10 PM 28.4 °F 20.4 °F 14.0 °F 55% 30.23 in 10.0 mi North 8.1 mph - N/A   Clear
6:30 PM 23.0 °F 14.7 °F 14.0 °F 68% 30.24 in 10.0 mi North 6.9 mph - N/A   Clear
6:50 PM 21.2 °F 12.6 °F 14.0 °F 74% 30.24 in 10.0 mi North 6.9 mph - N/A   Clear
7:10 PM 23.0 °F 14.7 °F 14.0 °F 68% 30.24 in 10.0 mi NE 6.9 mph - N/A   Clear
7:30 PM 24.8 °F 16.1 °F 14.0 °F 64% 30.25 in 10.0 mi NE 8.1 mph - N/A   Clear
7:50 PM 23.0 °F 14.7 °F 14.0 °F 68% 30.25 in 10.0 mi ENE 6.9 mph - N/A   Clear
8:10 PM 23.0 °F 15.8 °F 14.0 °F 68% 30.25 in 10.0 mi NE 5.8 mph - N/A   Clear
8:30 PM 21.2 °F 13.6 °F 12.2 °F 68% 30.27 in 10.0 mi NE 5.8 mph - N/A   Clear
8:50 PM 21.2 °F 12.6 °F 12.2 °F 68% 30.27 in 10.0 mi NE 6.9 mph - N/A   Clear
9:10 PM 21.2 °F 10.9 °F 12.2 °F 68% 30.26 in 10.0 mi NE 9.2 mph - N/A   Clear
9:30 PM 21.2 °F 10.1 °F 12.2 °F 68% 30.25 in 10.0 mi NE 10.4 mph - N/A   Clear
9:50 PM 21.2 °F 11.7 °F 12.2 °F 68% 30.24 in 10.0 mi NE 8.1 mph - N/A   Clear
10:10 PM 21.2 °F 8.9 °F 12.2 °F 68% 30.23 in 10.0 mi ENE 12.7 mph - N/A   Scattered Clouds
10:30 PM 21.2 °F 10.1 °F 10.4 °F 63% 30.25 in 10.0 mi ENE 10.4 mph - N/A   Overcast
10:50 PM 21.2 °F 9.5 °F 10.4 °F 63% 30.24 in 10.0 mi ENE 11.5 mph - N/A   Scattered Clouds
11:10 PM 21.2 °F 12.6 °F 10.4 °F 63% 30.26 in 10.0 mi East 6.9 mph - N/A   Mostly Cloudy
11:30 PM 23.0 °F 14.7 °F 10.4 °F 59% 30.27 in 10.0 mi East 6.9 mph - N/A   Overcast
11:50 PM 23.0 °F 13.1 °F 10.4 °F 59% 30.27 in 10.0 mi East 9.2 mph - N/A   Overcast